Home   Weather   Juàzeiro do Norte   Past weeks

Flag for Brazil Past Weather in Juàzeiro do Norte, Ceará, Brazil — Yesterday and Last 2 Weeks

Now
88 °F

Partly sunny.


Feels Like: 96 °F
Forecast: 74 / 98 °F
Wind: 9 mph from Northeast

Location: Fortaleza Aeropor-To

Current Time: Dec 7, 2016 at 1:24:26 pm

Latest Report: Dec 7, 2016 at 1:00 pm


Visibility: N/A

Pressure: 29.86 "Hg

Humidity: 62%

Dew Point: 73 °F

Location of Juàzeiro do NorteLocation

Past Weather in Juàzeiro do Norte — Graph

°F

Juàzeiro do Norte Temperature Yesterday

Maximum temperature yesterday: 88 °F (at 11:00 am)
Minimum temperature yesterday: 79 °F (at 12:00 am)
Average temperature yesterday: 82 °F

High & Low Weather Summary for the Past Weeks

 TemperatureHumidityPressure
High90 °F (Nov 23, 11:00 am)84% (Dec 3, 2:00 am)30.07 "Hg (Dec 3, 2:00 am)
Low77 °F (Dec 4, 4:00 am)49% (Nov 27, 12:00 pm)29.77 "Hg (Nov 22, 4:00 pm)
Average83 °F71%29.87 "Hg
* Reported Nov 22 12:00 pm — Dec 7 12:00 pm, Juàzeiro do Norte, Weather by CustomWeather, © 2016

Note: Actual official high and low records may vary slightly from our data, if they occured in-between our weather recording intervals... More about our weather records

Advertising

Juàzeiro do Norte Weather History for the Previous 24 Hours

Scroll right to see more
 ConditionsComfort  
Time TempWeatherWind HumidityBarometerVisibility
12:00 pm
Wed, Dec 7
86 °FScattered clouds.13 mph66%29.89 "HgN/A
11:00 am88 °FScattered clouds.13 mph62%29.89 "HgN/A
10:00 am86 °FPartly sunny.12 mph66%29.92 "HgN/A
9:00 am86 °FScattered clouds.12 mph62%29.89 "HgN/A
8:00 am84 °FPartly sunny.13 mph70%29.89 "HgN/A
7:00 am82 °FPartly sunny.13 mph74%29.89 "HgN/A
6:00 am81 °FPassing clouds.6 mph74%29.86 "HgN/A
5:00 am79 °FPassing clouds.9 mph84%29.86 "HgN/A
4:00 am79 °FPassing clouds.7 mph79%29.86 "HgN/A
3:00 am81 °FPassing clouds.9 mph74%29.83 "HgN/A
2:00 am81 °FPassing clouds.8 mph74%29.83 "HgN/A
1:00 am81 °FPassing clouds.9 mph79%29.86 "HgN/A
12:00 am81 °FPassing clouds.9 mph79%29.86 "HgN/A
11:00 pm
Tue, Dec 6
81 °FPassing clouds.9 mph79%29.89 "HgN/A
10:00 pm79 °FPassing clouds.9 mph84%29.89 "HgN/A
9:00 pm81 °FPassing clouds.7 mph79%29.89 "HgN/A
8:00 pm81 °FPassing clouds.8 mph84%29.89 "HgN/A
7:00 pm81 °FClear.8 mph79%29.89 "Hg10 mi
6:00 pm81 °FClear.8 mph79%29.86 "Hg10 mi
5:00 pm82 °FPassing clouds.14 mph74%29.86 "HgN/A
4:00 pm84 °FPassing clouds.14 mph70%29.86 "HgN/A
3:00 pm84 °FPassing clouds.16 mph66%29.86 "HgN/A
2:00 pm86 °FScattered clouds.16 mph66%29.89 "HgN/A
1:00 pm86 °FPartly sunny.17 mph66%29.92 "HgN/A
Weather by CustomWeather, © 2016

See weather overviewHow to use our weather pages